Hamilton Island, Australia

7:59 AM AEST on July 25, 2017 (GMT +1000)
Hamilton Island

Weather History for YBHM - October, 2012

Change the Weather History Date:

Wednesday, October 3, 2012

  Actual Average Record
Temperature  
Mean Temperature 70 °F -  
Max Temperature 75 °F - - ()
Min Temperature 66 °F - - ()
Cooling Degree Days 6    
Growing Degree Days 20 (Base 50)    
Moisture  
Dew Point 59 °F    
Average Humidity 63    
Maximum Humidity 73    
Minimum Humidity 51    
Precipitation  
Precipitation 0.00 in - - ()
Sea Level Pressure  
Sea Level Pressure 30.15 in    
Wind  
Wind Speed 30 mph ()    
Max Wind Speed 37 mph    
Max Gust Speed 48 mph    
T = Trace of Precipitation, MM = Missing Value Source: Averaged Metar Reports

Daily Weather History Graph

Daily Weather History Graph

Search for Another Location

Airport or City:

Trip Planner

Search our weather history database for the weather conditions in past years. The results will help you decide how hot, cold, wet, or windy it might be!

Date:

Astronomy

Oct. 03, 2012 Rise Set
Actual Time 5:43 AM AEST 6:02 PM AEST
Civil Twilight 5:21 AM AEST 6:25 PM AEST
Nautical Twilight 4:55 AM AEST 6:50 PM AEST
Astronomical Twilight 4:29 AM AEST 7:16 PM AEST
Moon 8:41 PM AEST (10/3) 7:23 AM AEST (10/3)
Length of Visible Light 13h 03m
Length of Day
12h 19m
Waning Gibbous, 92% of the Moon is Illuminated
Oct 3
Waning Gibbous
Oct 8
Last Quarter
Oct 15
New
Oct 22
First Quarter
Oct 30
Full

Hourly Weather History & Observations

Time (AEST) Temp. Dew Point Humidity Pressure Visibility Wind Dir Wind Speed Gust Speed Precip Events Conditions
12:00 AM 72 °F 60 °F 58% 30.17 in - ESE 35.7 mph - -  
12:00 AM 71.6 °F 60.8 °F 69% 30.15 in - ESE 35.7 mph - N/A   Unknown
12:30 AM 69.8 °F 59.0 °F 68% 30.15 in - ESE 36.8 mph - N/A   Unknown
1:00 AM 71.6 °F 59.0 °F 64% 30.15 in - ESE 33.4 mph - N/A   Unknown
1:30 AM 71.6 °F 62.6 °F 73% 30.15 in - ESE 35.7 mph - N/A   Unknown
1:53 AM 68.0 °F 59.0 °F 73% 30.12 in - ESE 34.5 mph 48.3 mph N/A   Unknown
2:00 AM 69.8 °F 60.8 °F 73% 30.12 in - ESE 36.8 mph 48.3 mph N/A   Unknown
2:30 AM 71.6 °F 60.8 °F 69% 30.12 in - ESE 33.4 mph - N/A   Unknown
3:00 AM 71 °F 60 °F 59% 30.12 in - ESE 34.5 mph - -  
3:00 AM 71.6 °F 59.0 °F 64% 30.12 in - ESE 34.5 mph - N/A   Unknown
3:30 AM 71.6 °F 60.8 °F 69% 30.12 in - ESE 34.5 mph - N/A   Unknown
4:00 AM 71.6 °F 60.8 °F 69% 30.12 in - ESE 32.2 mph - N/A   Unknown
4:30 AM 71.6 °F 59.0 °F 64% 30.12 in - ESE 27.6 mph - N/A   Unknown
5:00 AM 71.6 °F 60.8 °F 69% 30.12 in - ESE 31.1 mph - N/A   Unknown
5:30 AM 71.6 °F 59.0 °F 64% 30.12 in - ESE 31.1 mph - N/A   Unknown
6:00 AM 71 °F 58 °F 54% 30.15 in - ESE 33.4 mph - -  
6:00 AM 71.6 °F 57.2 °F 60% 30.15 in - ESE 33.4 mph - N/A   Unknown
6:30 AM 71.6 °F 59.0 °F 64% 30.15 in - ESE 31.1 mph - N/A   Unknown
7:00 AM 71.6 °F 59.0 °F 64% 30.18 in - ESE 33.4 mph - N/A   Unknown
7:30 AM 71.6 °F 59.0 °F 64% 30.18 in - ESE 28.8 mph - N/A   Unknown
8:00 AM 73.4 °F 57.2 °F 57% 30.18 in - ESE 29.9 mph - N/A   Unknown
8:30 AM 71.6 °F 59.0 °F 64% 30.18 in - ESE 32.2 mph - N/A   Unknown
9:00 AM 72 °F 58 °F 52% 30.21 in - ESE 29.9 mph - -  
9:00 AM 71.6 °F 59.0 °F 64% 30.21 in - ESE 29.9 mph - N/A   Unknown
9:30 AM 73.4 °F 57.2 °F 57% 30.21 in - ESE 31.1 mph - N/A   Unknown
10:00 AM 75.2 °F 59.0 °F 57% 30.21 in - ESE 27.6 mph - N/A   Unknown
10:30 AM 75.2 °F 59.0 °F 57% 30.21 in - ESE 27.6 mph - N/A   Unknown
11:00 AM 73.4 °F 57.2 °F 57% 30.21 in - ESE 32.2 mph - N/A   Unknown
11:30 AM 75.2 °F 57.2 °F 53% 30.18 in - ESE 29.9 mph - N/A   Unknown
12:00 PM 75 °F 60 °F 51% 30.19 in - ESE 28.8 mph - -  
12:00 PM 75.2 °F 60.8 °F 61% 30.18 in - ESE 28.8 mph - N/A   Unknown
12:30 PM 75.2 °F 59.0 °F 57% 30.18 in - SE 29.9 mph - N/A   Unknown
1:00 PM 75.2 °F 59.0 °F 57% 30.15 in - SE 28.8 mph - N/A   Unknown
1:30 PM 75.2 °F 57.2 °F 53% 30.15 in - SE 28.8 mph - N/A   Unknown
2:00 PM 73.4 °F 59.0 °F 61% 30.12 in - SE 29.9 mph - N/A   Unknown
2:30 PM 73.4 °F 57.2 °F 57% 30.12 in - SE 33.4 mph - N/A   Unknown
3:00 PM 73 °F 59 °F 52% 30.12 in - SE 29.9 mph - -  
3:00 PM 73.4 °F 59.0 °F 61% 30.12 in - SE 29.9 mph - N/A   Unknown
3:30 PM 73.4 °F 57.2 °F 57% 30.12 in - SE 33.4 mph - N/A   Unknown
4:00 PM 71.6 °F 59.0 °F 64% 30.09 in - SE 32.2 mph - N/A   Unknown
4:30 PM 71.6 °F 57.2 °F 60% 30.12 in - SE 33.4 mph - N/A   Unknown
5:00 PM 71.6 °F 57.2 °F 60% 30.12 in - SE 31.1 mph - N/A   Unknown
5:30 PM 71.6 °F 57.2 °F 60% 30.12 in - SE 28.8 mph - N/A   Unknown
6:00 PM 71 °F 60 °F 60% 30.14 in - SE 29.9 mph - -  
6:00 PM 71.6 °F 60.8 °F 69% 30.12 in - SE 29.9 mph - N/A   Unknown
6:30 PM 71.6 °F 59.0 °F 64% 30.15 in - ESE 29.9 mph - N/A   Unknown
7:00 PM 71.6 °F 57.2 °F 60% 30.15 in - SE 29.9 mph - N/A   Unknown
7:30 PM 69.8 °F 59.0 °F 68% 30.15 in - ESE 28.8 mph - N/A   Unknown
8:00 PM 69.8 °F 59.0 °F 68% 30.15 in - ESE 27.6 mph - N/A   Unknown
8:30 PM 68.0 °F 59.0 °F 73% 30.15 in - East 28.8 mph - N/A   Unknown
8:42 PM 69.8 °F 59.0 °F 68% 30.15 in - ESE 24.2 mph 35.7 mph N/A   Unknown
9:00 PM 71 °F 59 °F 57% 30.17 in - ESE 28.8 mph - -  
9:00 PM 71.6 °F 59.0 °F 64% 30.15 in - ESE 28.8 mph - N/A   Unknown
9:30 PM 69.8 °F 60.8 °F 73% 30.15 in - ESE 26.5 mph - N/A   Unknown
10:00 PM 69.8 °F 60.8 °F 73% 30.15 in - SE 26.5 mph - N/A   Unknown
10:30 PM 69.8 °F 57.2 °F 64% 30.15 in - SE 27.6 mph - N/A   Unknown
11:00 PM 71.6 °F 59.0 °F 64% 30.15 in - SE 26.5 mph - N/A   Unknown
11:30 PM 71.6 °F 59.0 °F 64% 30.15 in - SE 27.6 mph - N/A   Unknown